Location: Holkham
(52.9500°N, 0.8167°E)
Time: 20:25:50
(UTC+00:00)

Cosmos 1356 Rocket - Pass Details

Date: 19 May 2025
Orbit: 517 x 566 km, 81.2° (Epoch: 21 June)

Event Time Altitude Azimuth Distance (km) Brightness Sun altitude
Exits shadow 22:03:59 - 206° (SSW) 2,043 5.9 -13.3°
Reaches altitude 10° 22:04:26 10° 208° (SSW) 1,861 5.7 -13.4°
Maximum altitude 22:08:29 56° 287° (WNW) 679 4.0 -13.6°
Drops below altitude 10° 22:12:32 10° 6° (N) 1,859 7.0 -13.9°
Sets 22:14:45 0° 11° (N) 2,752 7.9 -14.0°
